| time (UTC) | temp F | wind direction | speed MPH | gust MPH | rain 1hr in | rain 24hr in | rain mn in | humidity % | barometer mb |
| 20260503041558 | 47 | 11 | 0.0 | 0.0 | 0.00 | 0.00 | 0.00 | 47 | 1014.2 |
| 20260503041058 | 47 | 11 | 0.0 | 0.0 | 0.00 | 0.00 | 0.00 | 47 | 1014.2 |
| 20260503040558 | 47 | 11 | 0.0 | 0.0 | 0.00 | 0.00 | 0.00 | 47 | 1014.3 |
| 20260503035100 | 47 | 11 | 0.0 | 1.0 | 0.00 | 0.00 | 0.00 | 47 | 1014.2 |
| 20260503034600 | 48 | 11 | 0.0 | 3.0 | 0.00 | 0.00 | 0.00 | 47 | 1014.3 |
| 20260503034102 | 48 | 11 | 1.0 | 3.0 | 0.00 | 0.00 | 0.00 | 46 | 1014.2 |
| 20260503033559 | 49 | 11 | 2.0 | 3.0 | 0.00 | 0.00 | 0.00 | 45 | 1014.3 |
| 20260503033134 | 49 | 11 | 1.0 | 3.0 | 0.00 | 0.00 | 0.00 | 45 | 1014.2 |
| 20260503032559 | 50 | 11 | 1.0 | 3.0 | 0.00 | 0.00 | 0.00 | 44 | 1014.1 |
| 20260503032059 | 50 | 11 | 1.0 | 2.0 | 0.00 | 0.00 | 0.00 | 44 | 1014.0 |
| 20260503031601 | 50 | 11 | 1.0 | 2.0 | 0.00 | 0.00 | 0.00 | 44 | 1014.1 |
| 20260503031059 | 50 | 11 | 1.0 | 2.0 | 0.00 | 0.00 | 0.00 | 44 | 1014.0 |
| 20260503030603 | 50 | 11 | 1.0 | 2.0 | 0.00 | 0.00 | 0.00 | 43 | 1014.0 |
| 20260503030110 | 51 | 11 | 1.0 | 2.0 | 0.00 | 0.00 | 0.00 | 43 | 1014.1 |
| 20260503025057 | 51 | 11 | 1.0 | 2.0 | 0.00 | 0.00 | 0.00 | 42 | 1014.0 |
| 20260503024623 | 52 | 11 | 1.0 | 3.0 | 0.00 | 0.00 | 0.00 | 42 | 1014.0 |
| 20260503024103 | 52 | 11 | 1.0 | 3.0 | 0.00 | 0.00 | 0.00 | 41 | 1013.8 |
| 20260503023558 | 53 | 11 | 0.0 | 3.0 | 0.00 | 0.00 | 0.00 | 40 | 1013.9 |
| 20260503023105 | 53 | 11 | 1.0 | 4.0 | 0.00 | 0.00 | 0.00 | 40 | 1013.7 |
| 20260503022559 | 54 | 11 | 2.0 | 4.0 | 0.00 | 0.00 | 0.00 | 39 | 1013.7 |
| 20260503022057 | 55 | 11 | 2.0 | 4.0 | 0.00 | 0.00 | 0.00 | 38 | 1013.7 |
| 20260503021601 | 56 | 11 | 2.0 | 3.0 | 0.00 | 0.00 | 0.00 | 37 | 1013.5 |
| 20260503021056 | 56 | 11 | 2.0 | 4.0 | 0.00 | 0.00 | 0.00 | 36 | 1013.6 |
| 20260503020557 | 57 | 11 | 2.0 | 5.0 | 0.00 | 0.00 | 0.00 | 36 | 1013.5 |
| 20260503020057 | 58 | 12 | 2.0 | 5.0 | 0.00 | 0.00 | 0.00 | 35 | 1013.4 |
| 20260503015056 | 59 | 5 | 4.0 | 9.0 | 0.00 | 0.00 | 0.00 | 34 | 1013.3 |
| 20260503014600 | 60 | 5 | 4.0 | 10.0 | 0.00 | 0.00 | 0.00 | 34 | 1013.4 |
| 20260503014056 | 60 | 25 | 4.0 | 10.0 | 0.00 | 0.00 | 0.00 | 34 | 1013.4 |
| 20260503013556 | 61 | 5 | 5.0 | 10.0 | 0.00 | 0.00 | 0.00 | 33 | 1013.4 |
| 20260503013056 | 61 | 24 | 4.0 | 11.0 | 0.00 | 0.00 | 0.00 | 33 | 1013.3 |
| 20260503012558 | 62 | 5 | 5.0 | 11.0 | 0.00 | 0.00 | 0.00 | 32 | 1013.3 |
| 20260503012055 | 62 | 5 | 5.0 | 12.0 | 0.00 | 0.00 | 0.00 | 32 | 1013.4 |
| 20260503011603 | 63 | 360 | 6.0 | 13.0 | 0.00 | 0.00 | 0.00 | 31 | 1013.2 |
| 20260503011055 | 63 | 355 | 7.0 | 13.0 | 0.00 | 0.00 | 0.00 | 31 | 1013.3 |
| 20260503010555 | 64 | 5 | 6.0 | 13.0 | 0.00 | 0.00 | 0.00 | 30 | 1013.3 |
| 20260503010055 | 64 | 5 | 6.0 | 13.0 | 0.00 | 0.00 | 0.00 | 30 | 1013.3 |
| 20260503005056 | 65 | 5 | 6.0 | 9.0 | 0.00 | 0.00 | 0.00 | 30 | 1013.1 |
| 20260503004556 | 65 | 360 | 5.0 | 9.0 | 0.00 | 0.00 | 0.00 | 30 | 1013.2 |
| 20260503004157 | 65 | 355 | 5.0 | 11.0 | 0.00 | 0.00 | 0.00 | 30 | 1013.1 |
| 20260503003555 | 65 | 5 | 6.0 | 11.0 | 0.00 | 0.00 | 0.00 | 30 | 1013.1 |
| 20260503003055 | 66 | 5 | 6.0 | 10.0 | 0.00 | 0.00 | 0.00 | 30 | 1013.2 |
| 20260503002556 | 66 | 355 | 6.0 | 14.0 | 0.00 | 0.00 | 0.00 | 29 | 1013.1 |
| 20260503002055 | 66 | 348 | 5.0 | 14.0 | 0.00 | 0.00 | 0.00 | 29 | 1013.1 |
| 20260503001601 | 66 | 360 | 4.0 | 10.0 | 0.00 | 0.00 | 0.00 | 29 | 1013.1 |
| 20260503001055 | 67 | 5 | 4.0 | 9.0 | 0.00 | 0.00 | 0.00 | 28 | 1013.0 |
| 20260503000555 | 67 | 344 | 3.0 | 10.0 | 0.00 | 0.00 | 0.00 | 29 | 1013.1 |
| 20260503000106 | 68 | 15 | 3.0 | 10.0 | 0.00 | 0.00 | 0.00 | 29 | 1013.0 |
| 20260502235055 | 69 | 315 | 3.0 | 11.0 | 0.00 | 0.00 | 0.00 | 27 | 1013.0 |
| 20260502234614 | 69 | 11 | 6.0 | 11.0 | 0.00 | 0.00 | 0.00 | 27 | 1012.9 |
| 20260502234055 | 69 | 12 | 6.0 | 11.0 | 0.00 | 0.00 | 0.00 | 27 | 1012.9 |
| 20260502233558 | 69 | 318 | 3.0 | 15.0 | 0.00 | 0.00 | 0.00 | 27 | 1013.0 |
| 20260502233108 | 69 | 294 | 4.0 | 11.0 | 0.00 | 0.00 | 0.00 | 28 | 1013.0 |
| 20260502232554 | 69 | 307 | 4.0 | 12.0 | 0.00 | 0.00 | 0.00 | 28 | 1013.0 |
| 20260502232054 | 69 | 320 | 4.0 | 13.0 | 0.00 | 0.00 | 0.00 | 27 | 1012.9 |
| 20260502231606 | 69 | 315 | 6.0 | 13.0 | 0.00 | 0.00 | 0.00 | 27 | 1013.0 |
| 20260502231054 | 70 | 343 | 7.0 | 12.0 | 0.00 | 0.00 | 0.00 | 28 | 1012.8 |
| 20260502230554 | 70 | 275 | 5.0 | 11.0 | 0.00 | 0.00 | 0.00 | 28 | 1012.8 |
| 20260502230054 | 69 | 348 | 5.0 | 11.0 | 0.00 | 0.00 | 0.00 | 29 | 1012.8 |
| 20260502225051 | 70 | 301 | 7.0 | 17.0 | 0.00 | 0.00 | 0.00 | 28 | 1012.9 |
| 20260502224551 | 70 | 360 | 3.0 | 11.0 | 0.00 | 0.00 | 0.00 | 29 | 1013.0 |
| 20260502224051 | 70 | 311 | 3.0 | 14.0 | 0.00 | 0.00 | 0.00 | 29 | 1012.9 |
| 20260502223551 | 69 | 5 | 6.0 | 14.0 | 0.00 | 0.00 | 0.00 | 31 | 1012.8 |
| 20260502223052 | 68 | 5 | 5.0 | 11.0 | 0.00 | 0.00 | 0.00 | 32 | 1012.9 |
| 20260502222550 | 69 | 360 | 6.0 | 14.0 | 0.00 | 0.00 | 0.00 | 31 | 1013.1 |
| 20260502222050 | 70 | 360 | 5.0 | 16.0 | 0.00 | 0.00 | 0.00 | 30 | 1012.9 |
| 20260502221651 | 70 | 317 | 7.0 | 16.0 | 0.00 | 0.00 | 0.00 | 29 | 1013.1 |
| 20260502221052 | 69 | 315 | 5.0 | 12.0 | 0.00 | 0.00 | 0.00 | 29 | 1013.1 |
| 20260502220549 | 71 | 306 | 6.0 | 14.0 | 0.00 | 0.00 | 0.00 | 28 | 1012.9 |
| 20260502220049 | 71 | 313 | 4.0 | 16.0 | 0.00 | 0.00 | 0.00 | 30 | 1013.3 |
| 20260502215051 | 71 | 314 | 5.0 | 14.0 | 0.00 | 0.00 | 0.00 | 29 | 1013.3 |
| 20260502214603 | 72 | 260 | 5.0 | 15.0 | 0.00 | 0.00 | 0.00 | 29 | 1013.3 |
| 20260502214051 | 71 | 12 | 5.0 | 12.0 | 0.00 | 0.00 | 0.00 | 29 | 1013.3 |
| 20260502213553 | 71 | 17 | 4.0 | 15.0 | 0.00 | 0.00 | 0.00 | 31 | 1013.4 |
| 20260502213054 | 71 | 15 | 6.0 | 15.0 | 0.00 | 0.00 | 0.00 | 30 | 1013.3 |
| 20260502212550 | 72 | 303 | 4.0 | 14.0 | 0.00 | 0.00 | 0.00 | 30 | 1013.3 |
| 20260502212050 | 71 | 275 | 5.0 | 14.0 | 0.00 | 0.00 | 0.00 | 30 | 1013.3 |
| 20260502211550 | 71 | 360 | 7.0 | 15.0 | 0.00 | 0.00 | 0.00 | 30 | 1013.5 |
| 20260502211053 | 71 | 9 | 6.0 | 15.0 | 0.00 | 0.00 | 0.00 | 30 | 1013.5 |
| 20260502210550 | 71 | 53 | 5.0 | 16.0 | 0.00 | 0.00 | 0.00 | 30 | 1013.3 |
| 20260502210049 | 71 | 313 | 4.0 | 18.0 | 0.00 | 0.00 | 0.00 | 30 | 1013.5 |
| 20260502205049 | 71 | 5 | 4.0 | 15.0 | 0.00 | 0.00 | 0.00 | 30 | 1013.4 |
| 20260502204551 | 71 | 355 | 5.0 | 17.0 | 0.00 | 0.00 | 0.00 | 32 | 1013.5 |
| 20260502204048 | 71 | 292 | 9.0 | 17.0 | 0.00 | 0.00 | 0.00 | 29 | 1013.5 |
| 20260502203548 | 71 | 317 | 4.0 | 14.0 | 0.00 | 0.00 | 0.00 | 31 | 1013.4 |
| 20260502203055 | 71 | 10 | 6.0 | 15.0 | 0.00 | 0.00 | 0.00 | 30 | 1013.5 |
| 20260502202547 | 72 | 315 | 8.0 | 15.0 | 0.00 | 0.00 | 0.00 | 30 | 1013.5 |
| 20260502202046 | 71 | 302 | 5.0 | 17.0 | 0.00 | 0.00 | 0.00 | 30 | 1013.4 |
| 20260502201549 | 71 | 360 | 8.0 | 17.0 | 0.00 | 0.00 | 0.00 | 31 | 1013.6 |
| 20260502201047 | 71 | 49 | 8.0 | 16.0 | 0.00 | 0.00 | 0.00 | 32 | 1013.6 |
| 20260502200549 | 70 | 40 | 7.0 | 12.0 | 0.00 | 0.00 | 0.00 | 30 | 1013.5 |
| 20260502200046 | 70 | 9 | 7.0 | 12.0 | 0.00 | 0.00 | 0.00 | 31 | 1013.5 |
| 20260502195044 | 70 | 32 | 7.0 | 13.0 | 0.00 | 0.00 | 0.00 | 32 | 1013.5 |
| 20260502194544 | 71 | 5 | 6.0 | 14.0 | 0.00 | 0.00 | 0.00 | 31 | 1013.6 |
| 20260502194044 | 71 | 346 | 6.0 | 14.0 | 0.00 | 0.00 | 0.00 | 31 | 1013.5 |
| 20260502193545 | 70 | 355 | 5.0 | 13.0 | 0.00 | 0.00 | 0.00 | 32 | 1013.5 |
| 20260502193045 | 71 | 309 | 5.0 | 16.0 | 0.00 | 0.00 | 0.00 | 30 | 1013.4 |
| 20260502192543 | 72 | 5 | 7.0 | 16.0 | 0.00 | 0.00 | 0.00 | 31 | 1013.5 |
| 20260502192043 | 70 | 348 | 6.0 | 15.0 | 0.00 | 0.00 | 0.00 | 33 | 1013.3 |
| 20260502191543 | 69 | 5 | 6.0 | 12.0 | 0.00 | 0.00 | 0.00 | 33 | 1013.4 |
| 20260502191042 | 68 | 326 | 4.0 | 15.0 | 0.00 | 0.00 | 0.00 | 32 | 1013.5 |
| 20260502190541 | 70 | 360 | 8.0 | 15.0 | 0.00 | 0.00 | 0.00 | 30 | 1013.7 |
| 20260502190041 | 70 | 311 | 7.0 | 17.0 | 0.00 | 0.00 | 0.00 | 32 | 1013.7 |
| 20260502185043 | 68 | 5 | 7.0 | 14.0 | 0.00 | 0.00 | 0.00 | 32 | 1013.5 |
| 20260502184546 | 68 | 12 | 8.0 | 15.0 | 0.00 | 0.00 | 0.00 | 31 | 1013.6 |
| 20260502184047 | 69 | 5 | 7.0 | 15.0 | 0.00 | 0.00 | 0.00 | 32 | 1013.6 |
| 20260502183544 | 69 | 24 | 8.0 | 13.0 | 0.00 | 0.00 | 0.00 | 33 | 1013.6 |
| 20260502183043 | 69 | 19 | 3.0 | 14.0 | 0.00 | 0.00 | 0.00 | 32 | 1013.5 |
| 20260502182544 | 70 | 5 | 7.0 | 14.0 | 0.00 | 0.00 | 0.00 | 31 | 1013.6 |
| 20260502182042 | 70 | 334 | 7.0 | 17.0 | 0.00 | 0.00 | 0.00 | 31 | 1013.8 |
| 20260502181542 | 69 | 18 | 9.0 | 17.0 | 0.00 | 0.00 | 0.00 | 33 | 1013.7 |
| 20260502181042 | 69 | 18 | 9.0 | 15.0 | 0.00 | 0.00 | 0.00 | 33 | 1013.7 |
| 20260502180544 | 69 | 13 | 8.0 | 15.0 | 0.00 | 0.00 | 0.00 | 33 | 1013.5 |
| 20260502164034 | 69 | 13 | 7.0 | 15.0 | 0.00 | 0.00 | 0.00 | 35 | 1013.6 |
| 20260502163534 | 69 | 50 | 9.0 | 18.0 | 0.00 | 0.00 | 0.00 | 34 | 1013.5 |
| 20260502163036 | 68 | 63 | 7.0 | 18.0 | 0.00 | 0.00 | 0.00 | 34 | 1013.4 |
| 20260502162533 | 68 | 360 | 7.0 | 16.0 | 0.00 | 0.00 | 0.00 | 35 | 1013.4 |
| 20260502162032 | 67 | 13 | 8.0 | 16.0 | 0.00 | 0.00 | 0.00 | 36 | 1013.5 |
| 20260502161531 | 67 | 22 | 5.0 | 12.0 | 0.00 | 0.00 | 0.00 | 37 | 1013.5 |
| 20260502161030 | 67 | 355 | 6.0 | 13.0 | 0.00 | 0.00 | 0.00 | 36 | 1013.4 |
| 20260502160531 | 66 | 340 | 5.0 | 13.0 | 0.00 | 0.00 | 0.00 | 38 | 1013.3 |
| 20260502152026 | 63 | 101 | 2.0 | 11.0 | 0.00 | 0.00 | 0.00 | 41 | 1013.5 |
| 20260502151524 | 63 | 24 | 4.0 | 11.0 | 0.00 | 0.00 | 0.00 | 40 | 1013.4 |
| 20260502151026 | 62 | 13 | 4.0 | 11.0 | 0.00 | 0.00 | 0.00 | 41 | 1013.5 |
| 20260502150523 | 62 | 27 | 3.0 | 10.0 | 0.00 | 0.00 | 0.00 | 41 | 1013.6 |
| 20260502130558 | 50 | 227 | 3.0 | 4.0 | 0.00 | 0.00 | 0.00 | 53 | 1013.5 |
| 20260502123559 | 43 | 233 | 6.0 | 9.0 | 0.00 | 0.00 | 0.00 | 59 | 1013.2 |
| 20260502123058 | 42 | 227 | 5.0 | 7.0 | 0.00 | 0.00 | 0.00 | 60 | 1013.5 |
| 20260502122557 | 42 | 232 | 3.0 | 4.0 | 0.00 | 0.00 | 0.00 | 59 | 1013.7 |
| 20260502122056 | 42 | 232 | 1.0 | 3.0 | 0.00 | 0.00 | 0.00 | 58 | 1013.6 |
| 20260502121555 | 43 | 230 | 1.0 | 3.0 | 0.00 | 0.00 | 0.00 | 57 | 1013.8 |
| 20260502121054 | 43 | 231 | 1.0 | 2.0 | 0.00 | 0.00 | 0.00 | 57 | 1013.9 |
| 20260502120553 | 43 | 229 | 0.0 | 3.0 | 0.00 | 0.00 | 0.00 | 56 | 1013.7 |
| 20260502120104 | 43 | 210 | 1.0 | 7.0 | 0.00 | 0.00 | 0.00 | 56 | 1013.6 |
| 20260502115049 | 44 | 244 | 2.0 | 10.0 | 0.00 | 0.00 | 0.00 | 54 | 1013.7 |
| 20260502114556 | 45 | 246 | 7.0 | 10.0 | 0.00 | 0.00 | 0.00 | 53 | 1013.7 |
| 20260502114048 | 45 | 248 | 8.0 | 10.0 | 0.00 | 0.00 | 0.00 | 53 | 1013.7 |
| 20260502113547 | 46 | 254 | 5.0 | 14.0 | 0.00 | 0.00 | 0.00 | 53 | 1013.9 |
| 20260502113048 | 45 | 246 | 5.0 | 14.0 | 0.00 | 0.00 | 0.00 | 54 | 1013.6 |
| 20260502112546 | 45 | 246 | 10.0 | 12.0 | 0.00 | 0.00 | 0.00 | 54 | 1013.5 |
| 20260502112046 | 45 | 253 | 4.0 | 14.0 | 0.00 | 0.00 | 0.00 | 53 | 1014.0 |
| 20260502111550 | 46 | 227 | 10.0 | 17.0 | 0.00 | 0.00 | 0.00 | 52 | 1013.5 |
| 20260502111047 | 47 | 229 | 11.0 | 21.0 | 0.00 | 0.00 | 0.00 | 51 | 1013.4 |
| 20260502110544 | 47 | 224 | 14.0 | 21.0 | 0.00 | 0.00 | 0.00 | 51 | 1013.4 |
| 20260502110043 | 47 | 223 | 14.0 | 18.0 | 0.00 | 0.00 | 0.00 | 51 | 1013.4 |
| 20260502105041 | 48 | 208 | 14.0 | 23.0 | 0.00 | 0.00 | 0.00 | 50 | 1013.3 |
| 20260502104547 | 48 | 213 | 14.0 | 19.0 | 0.00 | 0.00 | 0.00 | 50 | 1013.4 |
| 20260502104038 | 47 | 198 | 12.0 | 19.0 | 0.00 | 0.00 | 0.00 | 50 | 1013.4 |
| 20260502103538 | 47 | 209 | 12.0 | 19.0 | 0.00 | 0.00 | 0.00 | 50 | 1013.5 |
| 20260502103038 | 47 | 217 | 11.0 | 17.0 | 0.00 | 0.00 | 0.00 | 50 | 1013.6 |
| 20260502102538 | 47 | 215 | 12.0 | 15.0 | 0.00 | 0.00 | 0.00 | 50 | 1013.6 |
| 20260502102038 | 47 | 219 | 11.0 | 14.0 | 0.00 | 0.00 | 0.00 | 50 | 1013.6 |
| 20260502101538 | 47 | 216 | 12.0 | 15.0 | 0.00 | 0.00 | 0.00 | 51 | 1013.7 |
| 20260502101038 | 47 | 211 | 11.0 | 15.0 | 0.00 | 0.00 | 0.00 | 50 | 1013.8 |
| 20260502100536 | 47 | 209 | 10.0 | 12.0 | 0.00 | 0.00 | 0.00 | 50 | 1013.7 |
| 20260502091036 | 47 | 213 | 9.0 | 15.0 | 0.00 | 0.00 | 0.00 | 50 | 1014.2 |
| 20260502090536 | 47 | 216 | 9.0 | 15.0 | 0.00 | 0.00 | 0.00 | 50 | 1014.1 |
| 20260502071022 | 47 | 206 | 6.0 | 9.0 | 0.00 | 0.00 | 0.00 | 46 | 1015.4 |
| 20260502070527 | 47 | 203 | 6.0 | 9.0 | 0.00 | 0.00 | 0.00 | 46 | 1015.4 |
| 20260502070024 | 47 | 203 | 5.0 | 8.0 | 0.00 | 0.00 | 0.00 | 46 | 1015.5 |
| 20260502065017 | 47 | 207 | 6.0 | 9.0 | 0.00 | 0.00 | 0.00 | 46 | 1015.5 |
| 20260502064516 | 47 | 209 | 6.0 | 9.0 | 0.00 | 0.00 | 0.00 | 46 | 1015.6 |
| 20260502064016 | 47 | 200 | 6.0 | 10.0 | 0.00 | 0.00 | 0.00 | 46 | 1015.6 |
| 20260502063515 | 47 | 205 | 6.0 | 10.0 | 0.00 | 0.00 | 0.00 | 46 | 1015.6 |
| 20260502063015 | 47 | 198 | 6.0 | 10.0 | 0.00 | 0.00 | 0.00 | 45 | 1015.7 |
| 20260502062515 | 47 | 200 | 6.0 | 10.0 | 0.00 | 0.00 | 0.00 | 45 | 1015.5 |
| 20260502062014 | 47 | 187 | 7.0 | 10.0 | 0.00 | 0.00 | 0.00 | 45 | 1015.7 |
| 20260502061513 | 47 | 201 | 7.0 | 10.0 | 0.00 | 0.00 | 0.00 | 45 | 1015.7 |
| 20260502061013 | 47 | 213 | 8.0 | 10.0 | 0.00 | 0.00 | 0.00 | 45 | 1015.9 |
| 20260502060512 | 47 | 217 | 8.0 | 10.0 | 0.00 | 0.00 | 0.00 | 45 | 1015.8 |
| 20260502060012 | 46 | 216 | 7.0 | 9.0 | 0.00 | 0.00 | 0.00 | 45 | 1015.8 |
| 20260502055018 | 47 | 218 | 8.0 | 10.0 | 0.00 | 0.00 | 0.00 | 44 | 1015.8 |
| 20260502054519 | 47 | 208 | 7.0 | 9.0 | 0.00 | 0.00 | 0.00 | 43 | 1016.0 |
| 20260502054017 | 48 | 204 | 7.0 | 10.0 | 0.00 | 0.00 | 0.00 | 42 | 1016.0 |
| 20260502053516 | 49 | 210 | 8.0 | 10.0 | 0.00 | 0.00 | 0.00 | 42 | 1016.0 |
| 20260502053015 | 48 | 217 | 8.0 | 10.0 | 0.00 | 0.00 | 0.00 | 42 | 1016.1 |
| 20260502052514 | 47 | 211 | 7.0 | 10.0 | 0.00 | 0.00 | 0.00 | 43 | 1016.2 |
| 20260502052015 | 46 | 209 | 6.0 | 10.0 | 0.00 | 0.00 | 0.00 | 44 | 1016.2 |
| 20260502051530 | 46 | 210 | 6.0 | 8.0 | 0.00 | 0.00 | 0.00 | 44 | 1016.2 |
| 20260502051014 | 44 | 202 | 6.0 | 8.0 | 0.00 | 0.00 | 0.00 | 46 | 1016.2 |
| 20260502050513 | 42 | 211 | 5.0 | 7.0 | 0.00 | 0.00 | 0.00 | 48 | 1016.2 |
| 20260502050013 | 42 | 213 | 3.0 | 5.0 | 0.00 | 0.00 | 0.00 | 46 | 1016.5 |
| 20260502045011 | 41 | 213 | 3.0 | 5.0 | 0.00 | 0.00 | 0.00 | 46 | 1016.5 |
| 20260502044510 | 41 | 213 | 3.0 | 5.0 | 0.00 | 0.00 | 0.00 | 47 | 1016.5 |
| 20260502044013 | 40 | 213 | 2.0 | 4.0 | 0.00 | 0.00 | 0.00 | 47 | 1016.7 |
| 20260502043509 | 41 | 213 | 2.0 | 4.0 | 0.00 | 0.00 | 0.00 | 45 | 1016.6 |
| 20260502043010 | 41 | 213 | 2.0 | 4.0 | 0.00 | 0.00 | 0.00 | 44 | 1016.7 |
| 20260502042510 | 42 | 210 | 2.0 | 4.0 | 0.00 | 0.00 | 0.00 | 44 | 1016.7 |
| 20260502042010 | 42 | 210 | 3.0 | 4.0 | 0.00 | 0.00 | 0.00 | 44 | 1016.9 |